Miscellaneous Local Product
Issued by NWS North Platte, NE

Home | Current Version | Previous Version | Text Only | Print | Product List | Glossary On
Versions: 1 2 3 4 5 6 7 8 9 10 11 12 13 14 15 16 17 18 19 20 21 22 23 24 25 26 27 28 29 30 31 32 33 34 35 36 37 38 39 40 41 42 43 44 45 46 47 48 49 50
000
AXUS43 KLBF 211010
MISLBF


WESTERN AND NORTH CENTRAL NEBRASKA HOURLY WEATHER ROUNDUP
NATIONAL WEATHER SERVICE NORTH PLATTE NE
400 AM CST SUN JAN 21 2018

NOTE: "FAIR" INDICATES FEW OR NO CLOUDS BELOW 12,000 FEET WITH NO
SIGNIFICANT WEATHER AND/OR OBSTRUCTIONS TO VISIBILITY.

NOTE: STATIONS NOT REPORTING VARIABLES SUCH AS SKY/WEATHER OR
PRESSURE ARE PROVIDED BY RAWS AND APRS NETWORKS AND ARE NOT UNDER
NATIONAL WEATHER SERVICE QUALITY CONTROL.

...OBSERVATIONS IN AND NEAR THE EASTERN PANHANDLE OF NEBRASKA...

CITY           SKY/WX    TMP DP  RH WIND       PRES   REMARKS
PINE RIDGE     LGT SNOW  30  30 100 NE3       29.94F FOG
GORDON         CLOUDY    31  28  92 N12       29.91F WCI  21
CHADRON        LGT SNOW  30  29  96 NE7       29.95S FOG     WCI  23
ALLIANCE       LGT SNOW  29  29 100 NE16      29.87S FOG     WCI  17
SIDNEY         CLOUDY    30  28  92 NE12      29.84S WCI  20
CRESCENT LAKE    N/A     30  30  99 NE10G21     N/A  WCI  21
$$

...OBSERVATIONS IN NORTHERN NEBRASKA AND FAR SOUTHERN SOUTH DAKOTA...

CITY           SKY/WX    TMP DP  RH WIND       PRES   REMARKS
WINNER         CLOUDY    35  32  88 N14       29.94F WCI  26
VALENTINE      CLOUDY    34  31  88 N14       29.91F WCI  25
AINSWORTH      CLOUDY    33  32  98 N13       29.89F WCI  23
O`NEILL        CLOUDY    32  32 100 N12       29.89S WCI  23
THEDFORD       CLOUDY    34  32  93 N14       29.86F WCI  24
BROKEN BOW     MOCLDY    33  28  81 N16       29.82S WCI  23
ORD            CLEAR     32  28  85 N12       29.83S WCI  23
ALBION         CLOUDY    32  30  91 NE5       29.84S WCI  27
VALENTINE NWR    N/A     50  30  46 N10G20      N/A
HALSEY           N/A     50  31  48 N6          N/A
BUTTE            N/A     35  31  85 N12         N/A  WCI  27
CHAMBERS         N/A     29  28  95 N3          N/A
EWING            N/A     31  28  89 NE5         N/A  WCI  26
$$

...OBSERVATIONS IN SOUTHWEST NEBRASKA AND FAR NORTHEAST COLORADO...

CITY           SKY/WX    TMP DP  RH WIND       PRES   REMARKS
WRAY           CLOUDY    32  28  86 NE13      29.81S WCI  22
HOLYOKE        CLOUDY    34  30  86 NE14      29.83R WCI  24
IMPERIAL       CLOUDY    30  28  92 NE14      29.81F WCI  19
OGALLALA       CLOUDY    34  31  88 NE14      29.83F WCI  25
NORTH PLATTE   MOCLDY    33  29  85 N17       29.83S WCI  22
MCCOOK         CLOUDY    31  28  89 N12       29.80R WCI  22
LEXINGTON      CLOUDY    33  30  86 NE8       29.81R WCI  27
STAPLETON        N/A     32  30  92 NE8G18      N/A  WCI  25
GOTHENBURG       N/A     31  27  85 N8          N/A  WCI  24
CALLAWAY         N/A     31  29  91 NE13        N/A  WCI  21
$$

...OBSERVATIONS IN CENTRAL LINCOLN COUNTY AREA...

CITY           SKY/WX    TMP DP  RH WIND       PRES   REMARKS
N.P. AIRPORT   MOCLDY    33  29  85 N17       29.83S WCI  22
N.P. DOWNTOWN    N/A     32  29  90 NE9         N/A  WCI  24
N.P. SOUTHEAST   N/A     32  29  90 N7G15       N/A  WCI  26
N.P. HILLCREST   N/A     33  31  94 NE16G24     N/A  WCI  22
$$

...SOME OBSERVATIONS FROM AROUND THE REGION...

CITY           SKY/WX    TMP DP  RH WIND       PRES   REMARKS
DENVER         FRZ DRZL  27  24  89 NE15      29.78F FOG     WCI  15
BERTHOUD PASS  SNOW      12   1  62 MISG      29.65F VSB 1/2
GRAND JUNCTION LGT SNOW  31  31 100 W13       29.74S VSB 1   WCI  21
LARAMIE        LGT SNOW  19  17  92 NE8       29.76R FOG     WCI   9
CHEYENNE       SNOW      24  24 100 NE3       29.81S VSB 1/2
CASPER         FLURRIES  22  20  92 N20       29.91R WCI   7
BISMARCK       PTCLDY    20  18  92 NW7       30.00S WCI  11
RAPID CITY     LGT SNOW  29  27  92 CALM      29.97F FOG
PIERRE         CLOUDY    33  33 100 NW5       29.97S WCI  29
SIOUX FALLS    CLOUDY    30  28  92 MISG      29.91F
OMAHA          CLOUDY    37  34  89 N7        29.84F WCI  32
GRAND ISLAND   CLOUDY    33  31  92 N13       29.81S WCI  24
SCOTTSBLUFF    LGT SNOW  31  29  92 NE14      29.89R FOG     WCI  21
KANSAS CITY    CLOUDY    44  43  96 SE8       29.80F
HILL CITY      CLOUDY    36  36 100 N13       29.74S FOG     WCI  27
WICHITA        CLOUDY    51  49  92 S12       29.69S
DODGE CITY     FOG       29  27  92 NW10      29.68R VSB 3/4 WCI  20
OKLAHOMA CITY  CLOUDY    51  50  96 S16       29.80S
DALLAS         CLOUDY    65  59  81 S20       29.87F
AMARILLO       PTCLDY    43  18  36 S12       29.72F
$$




USA.gov is the U.S. government's official web portal to all federal, state and local government web resources and services.